Tregear Real Estate, NSW, 2770 Blacktown

Thinking about buying in Tregear? Now could not be a better time, with a whopping 1539 properties either residential or commercial there's certainly plenty to choose from.

The average property price for this area is $749,000 with prices in this suburb ranging from $378,000 to $1,404,000.

Distance to the coast is 39 Km.

Tregear Real Estate Market Outlook

In Tregear there has been a history of lower than average prices and demand, offering opportunities for investors or first home owners, especially in the context of the growth in working from home. Low average incomes in Tregear is reflected in smaller and lower quality accommodation. Over time this may change providsing long-term returns but in the short to medium term, prices are likely to be less than state averages. The slightly lower than average earnings from occupations in Tregear changes the housing and lifestyle preference. It is more a matter of what can be afforded rather than what would we prefer, leading to slower price increases over time. Low population density implies low demand and limits housing choices and price increases. Could be a good entry point for first home buyers needing to somehow get into the market. Lower than average industry presence in Tregear we believe will be less of a negative impact than it has in the past. Post-COVID and the growth in working from home has lessened the demand for local employment options. This may make Tregear a better buying opportunity than it may have been in the past.

About

For Sale

First National 11 COLBECK ST, TREGEAR, NSW, 2770 5 3 2 $879,000
Harcourts 120 ELLSWORTH DR, TREGEAR, NSW, 2770 4 1 JUST LISTED!
Harcourts UNIT 2, 9 GAUSS PL, TREGEAR, NSW, 2770 3 1 1 $450,000 - $490,000
Harcourts 73 WILKES CR, TREGEAR, NSW, 2770 3 2 Expressions of Interest
professionals 24 MAWSON RD, TREGEAR, NSW, 2770 3 1 1 Price: Contact Agent

More

Local Schools


Tregear Public School

(While the above schools are located with the suburb of Tregear there may also be nearby schools whose catchments cover this suburb)

Local Crime Stats


Average Local Climate by month


(mm)
RAIN
Min (°C)
TEMP
Max (°C)
TEMP
Min (%)
HUMIDITY
Max (%)
HUMIDITY
(m/sec)
WIND
(MJ/sq m)
SOLAR
Jan2.518.631.642.294.32.922.2
Feb3.518.029.746.295.12.718.8
Mar4.615.92749.996.02.415.5
Apr2.212.224.647.496.72.014.0
May1.17.221.146.996.71.711.4
Jun2.35.818.054.2971.99.2
Jul0.63.718.643.994.72.210.7
Aug1.14.320.037.892.82.613.2
Sept1.17.623.234.593.22.917.3
Oct1.511.625.338.794.12.819.7
Nov2.314.828.239.994.12.922.6
Dec2.616.629.839.994.3323.7

source: Australian Government Bureau of Meteorology

Recently Sold

03-05-2022 $860,000 63 WILKES CRES TREGEAR 2770
02-05-2022 $711,000 17 WEDDELL AVE TREGEAR 2770
22-04-2022 $567,500 16 EREBUS CRES TREGEAR 2770
21-04-2022 $800,000 24 AURORA DR TREGEAR 2770
21-04-2022 $680,000 6 PENGUIN PL TREGEAR 2770
19-04-2022 $590,000 9 D URVILLE AVE TREGEAR 2770
06-04-2022 $615,000 116 AURORA DR TREGEAR 2770
04-04-2022 $450,000 6 / 1 BYRD PL TREGEAR 2770
04-04-2022 $450,000 6 / 1 BYRD PL TREGEAR 2770
21-02-2022 $657,000 34 BRANSFIELD ST TREGEAR 2770
21-02-2022 $735,000 13 HATHERTON RD TREGEAR 2770
11-02-2022 $720,000 16 ENDERBY ST TREGEAR 2770
08-02-2022 $590,000 5 BELGICA ST TREGEAR 2770
07-02-2022 $415,000 1 / 1 BYRD PL TREGEAR 2770
04-02-2022 $670,000 7 TERN PL TREGEAR 2770
27-01-2022 $700,250 33 HATHERTON RD TREGEAR 2770
21-01-2022 $780,000 309 LUXFORD RD TREGEAR 2770
20-01-2022 $700,000 50 VINCENNES AVE TREGEAR 2770
20-01-2022 $713,000 1 D URVILLE AVE TREGEAR 2770
19-01-2022 $705,000 46 NELLA DAN AVE TREGEAR 2770
11-01-2022 $601,000 4 COLBECK ST TREGEAR 2770
20-12-2021 $705,000 32 WILKES CRES TREGEAR 2770
20-12-2021 $692,000 5 PETERSEN CRES TREGEAR 2770
07-12-2021 $410,000 1 / 9 GAUSS PL TREGEAR 2770
06-12-2021 $620,000 17 NELLA DAN AVE TREGEAR 2770
02-12-2021 $861,000 87 ELLSWORTH DR TREGEAR 2770
01-12-2021 $700,000 14 MIKKELSEN AVE TREGEAR 2770
30-11-2021 $690,000 25 COLBECK ST TREGEAR 2770
29-11-2021 $680,000 3 COLBECK ST TREGEAR 2770
26-11-2021 $695,000 295 LUXFORD RD TREGEAR 2770
10-11-2021 $635,000 14 SHACKLETON AVE TREGEAR 2770
08-11-2021 $715,000 40 EREBUS CRES TREGEAR 2770
04-11-2021 $681,000 47 COLBECK ST TREGEAR 2770
25-10-2021 $670,000 1 BISCOE PL TREGEAR 2770
06-10-2021 $590,000 12 WEDDELL AVE TREGEAR 2770
05-10-2021 $660,000 28 VINCENNES AVE TREGEAR 2770
05-10-2021 $550,000 16 NIMROD PL TREGEAR 2770
05-10-2021 $630,000 22 ENDERBY ST TREGEAR 2770
05-10-2021 $660,000 28 VINCENNES AVE TREGEAR 2770
05-10-2021 $550,000 16 NIMROD PL TREGEAR 2770
05-10-2021 $630,000 22 ENDERBY ST TREGEAR 2770
17-09-2021 $648,000 29 AMUNDSEN ST TREGEAR 2770
16-09-2021 $560,000 93 ELLSWORTH DR TREGEAR 2770
16-09-2021 $550,000 120 WILKES CRES TREGEAR 2770
16-09-2021 $560,000 93 ELLSWORTH DR TREGEAR 2770
16-09-2021 $550,000 120 WILKES CRES TREGEAR 2770
15-09-2021 $645,000 19 MIKKELSEN AVE TREGEAR 2770
10-09-2021 $660,500 2 BERNACCI ST TREGEAR 2770
07-09-2021 $638,000 24 KISTA DAN AVE TREGEAR 2770
01-09-2021 $695,000 16 SHACKLETON AVE TREGEAR 2770

Residz covers 12m+ Australian properties and brings together a wealth of data to give you a better understanding of an area. From crime and schools to bush fire, flood risk and more. Begin your search for properties for sale or learn more about where you currently reside. Residz is an exciting next-generation Real Estate platform getting better by the day!